This is the latest recevied weather packets stored in our database for station/object TA1FM. If no packets are shown the sender has not sent any weather packets the latest 10 day(s).
| Time | Temp. | Humidity | Pressure | Rain* | Wind** | Luminosity | Snow |
|---|---|---|---|---|---|---|---|
| 1777296294 | 10.56° C | 51% | 915.5 hPa | - | - | - | - |
| 1777295394 | 11.11° C | 49% | 915.7 hPa | - | - | - | - |
| 1777294494 | 11.11° C | 49% | 915.6 hPa | - | - | - | - |
| 1777293594 | 10.56° C | 50% | 915.8 hPa | - | - | - | - |
| 1777292694 | 11.11° C | 49% | 915.9 hPa | - | - | - | - |
| 1777291794 | 11.11° C | 48% | 916.2 hPa | - | - | - | - |
| 1777290893 | 10.56° C | 51% | 916.3 hPa | - | - | - | - |
| 1777289993 | 10.56° C | 52% | 916.3 hPa | - | - | - | - |
| 1777289093 | 10.56° C | 52% | 916.4 hPa | - | - | - | - |
| 1777288193 | 10.56° C | 53% | 916.5 hPa | - | - | - | - |
| 1777287293 | 10.56° C | 54% | 916.6 hPa | - | - | - | - |
| 1777286393 | 10.56° C | 55% | 916.8 hPa | - | - | - | - |
| 1777285493 | 10.56° C | 55% | 916.8 hPa | - | - | - | - |
| 1777284595 | 10.56° C | 55% | 916.9 hPa | - | - | - | - |
| 1777283692 | 10.56° C | 56% | 916.9 hPa | - | - | - | - |
| 1777282794 | 10° C | 58% | 917.1 hPa | - | - | - | - |
| 1777281943 | 10° C | 57% | 916.9 hPa | - | - | - | - |
| 1777281895 | 10° C | 57% | 916.9 hPa | - | - | - | - |
| 1777280995 | 10° C | 56% | 917 hPa | - | - | - | - |
| 1777280094 | 10° C | 56% | 917.1 hPa | - | - | - | - |
| 1777279192 | 9.44° C | 59% | 917.3 hPa | - | - | - | - |
| 1777278291 | 9.44° C | 59% | 917.1 hPa | - | - | - | - |
| 1777276491 | 8.89° C | 57% | 918.8 hPa | - | - | - | - |
| 1777275596 | 8.33° C | 58% | 916.9 hPa | - | - | - | - |
| 1777274696 | 8.33° C | 58% | 916.8 hPa | - | - | - | - |
* Rain since midnight (hover to see other rain measurements)
** Current wind speed in m/s (hover to see current wind gust speed)